Richmond, KY

7:15 PM EDT on April 25, 2018 (GMT -0400)
Richmond

Weather History for KI39 - March, 2012

Change the Weather History Date:

Thursday, March 1, 2012

  Actual Average (KLOZ) Record (KLOZ)
Temperature  
Mean Temperature 52 °F -  
Max Temperature 60 °F 51 °F 77 °F (1976)
Min Temperature 44 °F 30 °F 11 °F (1960)
Degree Days  
Heating Degree Days 13    
Growing Degree Days 2 (Base 50)    
Moisture  
Dew Point 32 °F    
Average Humidity 46    
Maximum Humidity 62    
Minimum Humidity 31    
Precipitation  
Precipitation 0.00 in - - ()
Sea Level Pressure  
Sea Level Pressure 29.87 in    
Wind  
Wind Speed 11 mph (WSW)    
Max Wind Speed 16 mph    
Max Gust Speed 23 mph    
Visibility 10 miles    
Events      
Averages and records for this station are not official NWS values.
T = Trace of Precipitation, MM = Missing Value Source: NWS Daily Summary

Daily Weather History Graph

Daily Weather History Graph

Search for Another Location

Airport or City:

Astronomy

Mar. 01, 2012 Rise Set
Actual Time 7:08 AM EST 6:31 PM EST
Civil Twilight 6:41 AM EST 6:57 PM EST
Nautical Twilight 6:11 AM EST 7:28 PM EST
Astronomical Twilight 5:41 AM EST 7:58 PM EST
Moon 11:56 AM EST (3/1) 2:00 AM EST (3/1)
Length of Visible Light 12h 16m
Length of Day
11h 23m
First Quarter, 56% of the Moon is Illuminated
Mar 1
First Quarter
Mar 8
Full
Mar 14
Last Quarter
Mar 22
New
Mar 30
First Quarter

Hourly Weather History & Observations

Time (EST) Temp. Windchill Dew Point Humidity Pressure Visibility Wind Dir Wind Speed Gust Speed Precip Events Conditions
12:15 AM 57.2 °F - 41.0 °F 55% 29.77 in 10.0 mi West 16.1 mph 23.0 mph N/A   Clear
12:35 AM 57.2 °F - 39.2 °F 51% 29.78 in 10.0 mi West 10.4 mph 20.7 mph N/A   Clear
12:55 AM 55.4 °F - 39.2 °F 54% 29.78 in 10.0 mi WSW 5.8 mph - N/A   Clear
1:15 AM 55.4 °F - 39.2 °F 54% 29.79 in 10.0 mi WSW 4.6 mph - N/A   Clear
1:35 AM 53.6 °F - 39.2 °F 58% 29.81 in 10.0 mi West 13.8 mph 19.6 mph N/A   Clear
1:55 AM 53.6 °F - 37.4 °F 54% 29.81 in 10.0 mi WSW 9.2 mph - N/A   Clear
2:15 AM 53.6 °F - 33.8 °F 47% 29.82 in 10.0 mi West 16.1 mph - N/A   Clear
2:35 AM 53.6 °F - 32.0 °F 44% 29.82 in 10.0 mi West 15.0 mph 23.0 mph N/A   Clear
2:55 AM 51.8 °F - 32.0 °F 47% 29.83 in 10.0 mi West 12.7 mph 18.4 mph N/A   Clear
3:15 AM 51.8 °F - 32.0 °F 47% 29.83 in 10.0 mi West 10.4 mph 18.4 mph N/A   Clear
3:35 AM 51.8 °F - 32.0 °F 47% 29.84 in 10.0 mi West 11.5 mph - N/A   Clear
3:55 AM 50.0 °F - 30.2 °F 47% 29.84 in 10.0 mi West 11.5 mph 17.3 mph N/A   Clear
4:15 AM 50.0 °F - 30.2 °F 47% 29.84 in 10.0 mi West 13.8 mph 18.4 mph N/A   Clear
4:35 AM 50.0 °F - 30.2 °F 47% 29.85 in 10.0 mi West 12.7 mph 18.4 mph N/A   Clear
4:55 AM 50.0 °F - 30.2 °F 47% 29.85 in 10.0 mi West 13.8 mph 23.0 mph N/A   Clear
5:15 AM 48.2 °F - 30.2 °F 50% 29.85 in 10.0 mi West 12.7 mph - N/A   Clear
5:35 AM 46.4 °F 41.5 °F 30.2 °F 53% 29.85 in 10.0 mi West 10.4 mph - N/A   Clear
5:55 AM 46.4 °F 43.5 °F 30.2 °F 53% 29.85 in 10.0 mi WSW 5.8 mph - N/A   Clear
6:15 AM 46.4 °F 42.4 °F 30.2 °F 53% 29.85 in 10.0 mi SW 8.1 mph - N/A   Clear
6:35 AM 46.4 °F 41.9 °F 30.2 °F 53% 29.86 in 10.0 mi WSW 9.2 mph - N/A   Clear
6:55 AM 44.6 °F 40.7 °F 30.2 °F 57% 29.86 in 10.0 mi SW 6.9 mph - N/A   Clear
7:15 AM 46.4 °F 42.4 °F 30.2 °F 53% 29.86 in 10.0 mi SW 8.1 mph - N/A   Clear
7:35 AM 44.6 °F 39.7 °F 30.2 °F 57% 29.87 in 10.0 mi WSW 9.2 mph - N/A   Clear
7:55 AM 46.4 °F 41.5 °F 30.2 °F 53% 29.88 in 10.0 mi WSW 10.4 mph - N/A   Clear
8:15 AM 46.4 °F 41.9 °F 32.0 °F 57% 29.89 in 10.0 mi WSW 9.2 mph - N/A   Clear
8:35 AM 46.4 °F 42.9 °F 32.0 °F 57% 29.89 in 10.0 mi SW 6.9 mph - N/A   Clear
8:55 AM 48.2 °F - 32.0 °F 54% 29.90 in 10.0 mi WSW 9.2 mph - N/A   Clear
9:15 AM 50.0 °F - 32.0 °F 50% 29.91 in 10.0 mi WSW 10.4 mph - N/A   Clear
9:35 AM 50.0 °F - 32.0 °F 50% 29.92 in 10.0 mi West 10.4 mph 16.1 mph N/A   Clear
9:55 AM 51.8 °F - 32.0 °F 47% 29.92 in 10.0 mi West 10.4 mph 16.1 mph N/A   Clear
10:15 AM 51.8 °F - 32.0 °F 47% 29.92 in 10.0 mi WSW 13.8 mph - N/A   Clear
10:35 AM 51.8 °F - 32.0 °F 47% 29.92 in 10.0 mi WSW 15.0 mph 20.7 mph N/A   Clear
10:55 AM 53.6 °F - 32.0 °F 44% 29.93 in 10.0 mi WSW 12.7 mph 20.7 mph N/A   Clear
11:15 AM 53.6 °F - 33.8 °F 47% 29.93 in 10.0 mi WSW 10.4 mph - N/A   Clear
11:35 AM 53.6 °F - 32.0 °F 44% 29.93 in 10.0 mi West 11.5 mph - N/A   Clear
11:55 AM 55.4 °F - 33.8 °F 44% 29.93 in 10.0 mi West 15.0 mph - N/A   Clear
12:15 PM 55.4 °F - 32.0 °F 41% 29.93 in 10.0 mi West 16.1 mph 21.9 mph N/A   Clear
12:55 PM 57.2 °F - 33.8 °F 41% 29.91 in 10.0 mi WSW 10.4 mph 17.3 mph N/A   Clear
1:15 PM 59.0 °F - 33.8 °F 39% 29.90 in 10.0 mi WSW 11.5 mph 17.3 mph N/A   Clear
1:35 PM 59.0 °F - 32.0 °F 36% 29.89 in 10.0 mi West 15.0 mph 20.7 mph N/A   Clear
1:55 PM 59.0 °F - 32.0 °F 36% 29.89 in 10.0 mi West 13.8 mph 20.7 mph N/A   Clear
2:15 PM 59.0 °F - 32.0 °F 36% 29.89 in 10.0 mi WSW 15.0 mph 20.7 mph N/A   Clear
2:35 PM 59.0 °F - 32.0 °F 36% 29.88 in 10.0 mi WSW 10.4 mph 18.4 mph N/A   Clear
2:55 PM 60.8 °F - 32.0 °F 34% 29.88 in 10.0 mi WSW 11.5 mph 18.4 mph N/A   Clear
3:15 PM 60.8 °F - 32.0 °F 34% 29.88 in 10.0 mi West 12.7 mph 17.3 mph N/A   Clear
3:55 PM 60.8 °F - 30.2 °F 31% 29.87 in 10.0 mi WSW 10.4 mph - N/A   Clear
4:15 PM 60.8 °F - 32.0 °F 34% 29.86 in 10.0 mi West 9.2 mph - N/A   Clear
4:35 PM 60.8 °F - 32.0 °F 34% 29.87 in 10.0 mi West 8.1 mph - N/A   Clear
4:55 PM 60.8 °F - 32.0 °F 34% 29.87 in 10.0 mi West 8.1 mph - N/A   Clear
5:15 PM 60.8 °F - 32.0 °F 34% 29.86 in 10.0 mi West 8.1 mph - N/A   Clear
5:35 PM 59.0 °F - 32.0 °F 36% 29.87 in 10.0 mi West 6.9 mph - N/A   Clear
5:55 PM 59.0 °F - 33.8 °F 39% 29.86 in 10.0 mi West 6.9 mph - N/A   Clear
6:15 PM 57.2 °F - 32.0 °F 38% 29.86 in 10.0 mi West 4.6 mph - N/A   Clear
6:35 PM 57.2 °F - 30.2 °F 36% 29.86 in 10.0 mi WSW 3.5 mph - N/A   Clear
6:55 PM 57.2 °F - 30.2 °F 36% 29.86 in 10.0 mi WSW 3.5 mph - N/A   Clear
7:15 PM 57.2 °F - 30.2 °F 36% 29.86 in 10.0 mi WSW 3.5 mph - N/A   Clear
7:35 PM 55.4 °F - 30.2 °F 38% 29.86 in 10.0 mi SW 3.5 mph - N/A   Clear
7:55 PM 55.4 °F - 30.2 °F 38% 29.85 in 10.0 mi SSW 3.5 mph - N/A   Clear
8:15 PM 51.8 °F - 32.0 °F 47% 29.85 in 10.0 mi SSE 3.5 mph - N/A   Clear
8:35 PM 51.8 °F - 33.8 °F 50% 29.85 in 10.0 mi SE 4.6 mph - N/A   Clear
8:55 PM 50.0 °F - 33.8 °F 54% 29.85 in 10.0 mi SE 5.8 mph - N/A   Clear
9:15 PM 48.2 °F - 33.8 °F 58% 29.86 in 10.0 mi SE 3.5 mph - N/A   Clear
9:35 PM 48.2 °F - 32.0 °F 54% 29.85 in 10.0 mi Calm Calm - N/A   Clear
9:55 PM 46.4 °F 44.3 °F 33.8 °F 62% 29.86 in 10.0 mi ESE 4.6 mph - N/A   Clear
10:15 PM 46.4 °F 44.3 °F 32.0 °F 57% 29.86 in 10.0 mi SE 4.6 mph - N/A   Clear
10:35 PM 44.6 °F 40.7 °F 33.8 °F 66% 29.85 in 10.0 mi SE 6.9 mph - N/A   Clear
10:55 PM 44.6 °F 40.7 °F 32.0 °F 61% 29.84 in 10.0 mi SE 6.9 mph - N/A   Clear
11:15 PM 44.6 °F 41.4 °F 32.0 °F 61% 29.84 in 10.0 mi SE 5.8 mph - N/A   Clear
11:35 PM 42.8 °F 39.3 °F 33.8 °F 70% 29.84 in 10.0 mi SE 5.8 mph - N/A   Clear
11:55 PM 42.8 °F 39.3 °F 32.0 °F 66% 29.83 in 10.0 mi SE 5.8 mph - N/A   Clear